Location: Charbonni�res
(45.9952°N, 2.9982°E)
Time: 16:58:55
(UTC+00:00)

SL-4 R/B - Pass Details

Date: 29 November 2020
Orbit: 428 x 664 km, 51.6° (Epoch: 17 January)

Event Time Altitude Azimuth Distance (km) Brightness Sun altitude
Exits shadow 05:51:21 19° 309° (NW) 1,249 3.3 -12.8°
Maximum altitude 05:53:34 35° 5° (N) 807 2.7 -12.5°
Drops below altitude 10° 05:56:58 10° 73° (ENE) 1,626 5.3 -11.9°
Sets 05:59:10 0° 83° (E) 2,469 6.6 -11.6°
